星链-3619 (STARLINK-3619 )

导读 | 豆包AI

STARLINK-3619是美国太空探索技术公司 SpaceX 星链(Starlink)星座的组网卫星,于2022年2月25日发射升空。星链项目旨在构建全球卫星互联网星座,该卫星加入后进一步完善了星链低轨卫星网络的覆盖能力,为全球多地提供宽带互联网接入服务,推动全球网络覆盖与通信互联发展。

Basic Information
目录编号:
51787
目录名称:
STARLINK-3619
国际标识:
2022-017V
轨道中心:
EARTH
卫星名称:
星链-3619
卫星全名:
星链-3619 (STARLINK-3619 )
卫星状态:
在轨 (已飞行1526 天)
发射日期:
2022-02-25 UTC
国别 :
美国 (US)
星等 :
--
Orbit Information
数据来源 国际轨道数据 AOE轨道数据
星历时间 2026-04-30T17:43:07+0800
14小时前
查看轨道信息
2026-04-27T04:00:00+0800
4天前
查看轨道信息
半长轴 6917.885km 6917.88km
偏心率 0.0001122 0.0001233
轨道倾角 53.216° 53.215°
近地点辐角 74.701° 69.942°
升交点赤经 116.962° 132.995°
平近点角 285.410° 319.286°
近地点 538.971km 538.89km
远地点 540.525km 540.596km
周期 95.438分钟 95.438分钟
每日圈数 15.088387 15.088402
Detailed Information
固有亮度:
5
最大亮度:
2.5
卫星平台:
Starlink v1.5
覆盖范围:
全球
运营商:
太空探索技术公司
运营商所在国:
美国
制造商(研发单位):
太空探索技术公司
制造商所在国:
美国
使用方式:
暂无
Satellite Introduction
星链(Starlink)计划是由太空探索技术公司(SpaceX)提出的一个巨型低轨卫星互联网星座项目,计划在2019年至2024年间在太空搭建由约1.2万颗卫星组成的“星链”网络,其中1584颗将部署在地球上空550千米处的近地轨道,并从2020年开始工作。该卫星仍在工作。
2D Orbit Map
3D Orbit Map
Orbit Altitude Analysis Chart
Orbit Inclination Analysis Chart
Orbit Comprehensive Analysis Chart
View Comprehensive Chart